Location: 10033 Water Well
(34.0865°N, 106.8959°W)
Time: 18:28:50
(UTC+00:00)

Resurs 01 Rocket - Visible Passes

Search period start: 11 April 2026 00:00
Search period end: 21 April 2026 00:00
Orbit: 625 x 637 km, 97.7° (Epoch: 11 April)

Date Brightness Start Highest point End Pass type
(mag) Time Alt. Az. Time Alt. Az. Time Alt. Az.
11 Apr 3.5 02:45:38 10° SSW 02:49:31 31° W 02:53:25 10° NW visible
12 Apr 4.3 03:07:18 10° SW 03:10:18 18° W 03:13:18 10° NW visible
14 Apr 1.7 02:10:46 10° S 02:15:08 82° WSW 02:19:32 10° NNW visible
15 Apr 2.8 02:31:39 10° S 02:35:49 45° W 02:40:01 10° NNW visible
16 Apr 3.8 02:52:56 10° SSW 02:56:34 25° W 03:00:12 10° NW visible
17 Apr 4.5 03:14:55 10° SW 03:17:22 15° W 03:19:48 10° WNW visible
19 Apr 2.0 02:17:48 10° S 02:22:09 66° W 02:26:29 10° NNW visible
20 Apr 3.2 02:38:49 10° SSW 02:42:50 36° W 02:46:52 10° NNW visible
